Weather Roundup
Issued by NWS

Home | Current Version | Previous Version | Graphics & Text | Print | Product List | Glossary Off
Versions: 1 2 3 4 5 6 7 8 9 10 11 12 13 14 15 16 17 18 19 20 21 22 23 24 25 26 27 28 29 30 31 32 33 34 35 36 37 38 39 40 41 42 43 44 45 46 47 48 49 50

000
NZUS93 KARX 211659
HRRWXR

CURRENT HOURLY OBSERVATIONS ACROSS
MUCH OF THE UPPER MISSISSIPPI VALLEY
NATIONAL WEATHER SERVICE LA CROSSE WI
1200 PM CDT TUE OCT 21 2014


...SOUTHEAST MINNESOTA...


CITY           SKY/WX    TMP DP  RH WIND       PRES   REMARKS
ROCHESTER      SUNNY     51  41  68 SE10      30.21F
ROCHESTER/MAYO FAIR      50  37  62 SE10G16   30.20F
WINONA         SUNNY     50  37  62 SE8       30.24S
AUSTIN         SUNNY     54  43  66 SE10      30.18S
ALBERT LEA     SUNNY     55  43  62 SE9       30.17F
DODGE CENTER   SUNNY     54  41  62 SE10      30.19S
PRESTON        SUNNY     49  39  69 E8        30.21F
OWATONNA       SUNNY     55  41  58 SE7       30.18F
FARIBAULT      SUNNY     55  43  62 E9        30.18F
$$

...ELSEWHERE IN MINNESOTA...


CITY           SKY/WX    TMP DP  RH WIND       PRES   REMARKS
MINNEAPOLIS    SUNNY     51  39  63 E15       30.20S
INTNL FALLS    CLOUDY    45  35  68 SE12      30.18F
DULUTH         CLOUDY    43  34  70 E14       30.24R
RED WING       SUNNY     52  37  58 SE9       30.21S
REDWOOD FALLS  SUNNY     59  42  53 SE14      30.12S
MANKATO        SUNNY     55  39  54 SE13      30.16F
WORTHINGTON    SUNNY     63  39  42 S9        30.11F
FAIRMONT       SUNNY     57  41  54 SE12      30.14F
$$

...SOUTHWEST WISCONSIN...


CITY           SKY/WX    TMP DP  RH WIND       PRES   REMARKS
LA CROSSE      SUNNY     52  38  58 SE6       30.24S
PRAIRIE DU CHI SUNNY     51  36  56 NE5       30.23S
BOSCOBEL       SUNNY     53  37  54 VRB6      30.24S
LONE ROCK      NOT AVBL
PLATTEVILLE    MOSUNNY   51  40  66 NE8       30.23R
FORT MC COY    PTSUNNY   49  36  61 E6        30.26R
VIROQUA        FAIR      49  37  61 E5        30.22F
WIS DELLS      CLOUDY    46  35  67 E6        30.24S
$$

...ELSEWHERE IN WISCONSIN...


CITY           SKY/WX    TMP DP  RH WIND       PRES   REMARKS
MILWAUKEE      CLOUDY    48  38  68 N13       30.21R
MADISON        CLOUDY    47  37  68 NE12      30.24R
GREEN BAY      PTSUNNY   48  35  60 NE13      30.25R
EAU CLAIRE     MOSUNNY   47  36  65 E5        30.24S
BLACK RVR FLS  FAIR      49  35  60 NE6       30.24S
MEDFORD        PTSUNNY   43  35  72 E3        30.24S
WAUSAU         PTSUNNY   44  34  67 SE8       30.24S
WIS RAPIDS     CLOUDY    46  35  65 E6        30.27R
MARSHFIELD     PTSUNNY   46  35  65 VRB3      30.24R
RICE LAKE      MOSUNNY   47  35  63 E5        30.25S HAZE
$$

...NORTHEAST IOWA...


CITY           SKY/WX    TMP DP  RH WIND       PRES   REMARKS
DECORAH        SUNNY     50  39  66 VRB6      30.21S
MASON CITY     SUNNY     56  41  57 SE10      30.19F
CHARLES CITY   SUNNY     54  41  62 SE10      30.20S
OELWEIN        SUNNY     54  39  58 E9        30.21S
$$

...ELSEWHERE IN IOWA...


CITY           SKY/WX    TMP DP  RH WIND       PRES   REMARKS
DES MOINES     SUNNY     60  46  59 E7        30.16S
IOWA CITY      SUNNY     56  41  57 E9        30.21S
FORT DODGE     SUNNY     59  45  58 S7        30.16S
$$

...NORTHERN ILLINOIS...


CITY           SKY/WX    TMP DP  RH WIND       PRES   REMARKS
CHICAGO-OHARE  PTSUNNY   52  40  63 N17       30.17S
CHICAGO-MIDWAY CLOUDY    53  42  66 N17       30.16S
MOLINE         SUNNY     56  40  55 NE8       30.19F
ROCKFORD       PTSUNNY   52  38  58 NE9       30.22F
PEORIA         MOSUNNY   57  39  51 E9        30.18R
$$

NOTE: "FAIR" INDICATES FEW OR NO CLOUDS BELOW 12,000 FEET WITH NO
SIGNIFICANT WEATHER AND/OR OBSTRUCTIONS TO VISIBILITY. WIND
SPEEDS ARE IN MILES-PER-HOUR.



USA.gov is the U.S. government's official web portal to all federal, state and local government web resources and services.